Volver al catálogo

COSMOS 249 DEB

ActivoLEO
NORAD 3606·DEBRIS·🇷🇺 Russia

Lanzado Oct 20, 1968 desde Baikonur Cosmodrome

Loading…

Próximos Pases (próximas 24 horas)

TLE

ActualizadoSource: Space-Track

Época: Sep 14, 2026, 08:00 UTC

1 03606U 68091Y   26257.33349398  .00000810  00000-0  73136-3 0  9995
2 03606  62.2540 241.6789 0730829 304.7472  48.6779 13.06194292696312

Sigue COSMOS 249 DEB en tiempo real con AllMySat

Download on the App Store